Find Optus D2

NORAD ID: 32252 Int'l Des: 2007-044 Owner: OPTS Country: AU operational
HEOCIRCULAR

Live Position

Loading 3D Globe...

About Optus D2

Description loading...

Upcoming Passes

Passes for default location (London). Set your location on the main map for personalized predictions.

Altitude History

Loading altitude history...

Two-Line Element Set

1 32252U 07044A 26105.87851990 .00000100 00000-0 00000-0 0 9991
2 32252 1.9174 82.7412 0003025 290.0647 190.0286 0.99341251 67924
Epoch: Apr 15, 2026 • Age: 9 hours

Current Status

Altitude 36039.6 km
Velocity 3.07 km/s
Sub-Earth Point -1.75°S, 41.29°E
Launch Date Oct 5, 2007
Age 18.5 years
Type other

Technical Details

Classification Payload
Mass 2350.00 kg
Dry Mass 1079.00 kg
Total Mass 2350.00 kg
Length 4.20 m
Diameter 2.30 m
Span 22.40 m
Shape Box + 2 Pan
Manufacturer OSCD
Bus Type OSC Star 2.4
Phase Status In Orbit
Owner/State OPTS/AU

Most Searched